KG6SIB Weather Reports


time (UTC)temp
C
wind
direction
speed
KPH
gust
KPH
rain 1hr
cm
rain 24hr
cm
rain mn
cm
humidity
%
barometer
mb
20210723165438 30 249 3.2 17.7 0.00 0.00 0.00 25 1020.8
20210723164939 30 244 6.4 17.7 0.00 0.00 0.00 25 1020.9
20210723164437 30 193 6.4 14.5 0.00 0.00 0.00 24 1020.7
20210723163938 30 250 4.8 14.5 0.00 0.00 0.00 23 1020.7
20210723163437 30 268 4.8 12.9 0.00 0.00 0.00 24 1020.6
20210723162937 30 259 6.4 12.9 0.00 0.00 0.00 23 1020.7
20210723162437 29 196 9.7 12.9 0.00 0.00 0.00 25 1020.7
20210723161937 29 221 6.4 12.9 0.00 0.00 0.00 24 1020.8
20210723161436 29 265 4.8 12.9 0.00 0.00 0.00 26 1021.0
20210723160936 28 223 4.8 12.9 0.00 0.00 0.00 25 1020.7
20210723160436 28 244 1.6 12.9 0.00 0.00 0.00 24 1020.7
20210723155936 28 223 9.7 11.3 0.00 0.00 0.00 24 1020.8
20210723155436 28 233 8.0 11.3 0.00 0.00 0.00 24 1020.6
20210723154936 28 230 4.8 11.3 0.00 0.00 0.00 25 1020.7
20210723154436 27 197 8.0 11.3 0.00 0.00 0.00 24 1020.7
20210723153936 27 250 4.8 9.7 0.00 0.00 0.00 24 1020.5
20210723153435 27 222 6.4 9.7 0.00 0.00 0.00 24 1020.5
20210723152936 27 205 6.4 12.9 0.00 0.00 0.00 25 1020.4
20210723152435 27 215 8.0 12.9 0.00 0.00 0.00 24 1020.0
20210723151936 27 256 4.8 6.4 0.00 0.00 0.00 28 1020.1
20210723151436 26 63 4.8 4.8 0.00 0.00 0.00 27 1020.1
20210723150935 26 63 0.0 0.0 0.00 0.00 0.00 26 1019.6
20210723150435 26 63 0.0 3.2 0.00 0.00 0.00 29 1019.7
20210723145935 25 63 0.0 3.2 0.00 0.00 0.00 31 1019.8
20210723145435 24 63 3.2 4.8 0.00 0.00 0.00 33 1019.7
20210723144934 23 63 0.0 6.4 0.00 0.00 0.00 39 1019.8
20210723144434 23 63 1.6 9.7 0.00 0.00 0.00 38 1019.6
20210723143934 22 63 4.8 9.7 0.00 0.00 0.00 40 1019.5
20210723143434 21 69 3.2 9.7 0.00 0.00 0.00 42 1019.3
20210723142934 20 71 6.4 8.0 0.00 0.00 0.00 42 1019.1
20210723142434 20 57 3.2 8.0 0.00 0.00 0.00 44 1019.2
20210723141933 19 40 1.6 6.4 0.00 0.00 0.00 45 1018.9
20210723141433 19 40 3.2 8.0 0.00 0.00 0.00 45 1018.9
20210723140933 18 42 4.8 8.0 0.00 0.00 0.00 45 1018.8
20210723140433 18 42 6.4 8.0 0.00 0.00 0.00 45 1018.8
20210723135933 18 42 4.8 9.7 0.00 0.00 0.00 44 1018.8
20210723135433 18 50 6.4 9.7 0.00 0.00 0.00 43 1018.8
20210723134933 17 49 4.8 8.0 0.00 0.00 0.00 43 1018.5
20210723134432 17 45 6.4 8.0 0.00 0.00 0.00 42 1018.4
20210723133933 17 56 3.2 8.0 0.00 0.00 0.00 42 1018.4
20210723133433 17 51 6.4 9.7 0.00 0.00 0.00 41 1018.3
20210723132932 17 51 8.0 9.7 0.00 0.00 0.00 41 1018.3
20210723132432 17 49 6.4 8.0 0.00 0.00 0.00 41 1018.1
20210723131932 17 57 6.4 8.0 0.00 0.00 0.00 41 1018.0
20210723130926 17 52 4.8 14.5 0.00 0.00 0.00 41 1018.0
20210723130426 17 50 3.2 14.5 0.00 0.00 0.00 41 1018.0
20210723125926 17 55 6.4 11.3 0.00 0.00 0.00 41 1018.3
20210723125426 17 46 8.0 9.7 0.00 0.00 0.00 41 1018.3
20210723124925 17 51 8.0 9.7 0.00 0.00 0.00 41 1018.1
20210723124425 17 40 3.2 8.0 0.00 0.00 0.00 41 1018.0
20210723123925 17 53 3.2 8.0 0.00 0.00 0.00 42 1018.1
20210723123425 17 49 3.2 9.7 0.00 0.00 0.00 42 1018.1
20210723122925 17 53 4.8 9.7 0.00 0.00 0.00 42 1018.0
20210723122425 17 42 8.0 11.3 0.00 0.00 0.00 42 1017.9
20210723121925 17 42 4.8 11.3 0.00 0.00 0.00 42 1017.9
20210723121424 17 45 8.0 9.7 0.00 0.00 0.00 41 1017.7
20210723120924 17 54 6.4 9.7 0.00 0.00 0.00 42 1017.8
20210723120424 17 60 3.2 9.7 0.00 0.00 0.00 42 1017.8
20210723115924 17 48 6.4 12.9 0.00 0.00 0.00 42 1017.7
20210723115424 17 50 4.8 12.9 0.00 0.00 0.00 42 1017.7
20210723114924 17 51 6.4 11.3 0.00 0.00 0.00 43 1017.6
20210723114424 17 62 8.0 11.3 0.00 0.00 0.00 43 1017.6
20210723113923 17 69 4.8 11.3 0.00 0.00 0.00 43 1017.7
20210723113423 17 51 4.8 11.3 0.00 0.00 0.00 43 1017.7
20210723112923 17 49 8.0 14.5 0.00 0.00 0.00 44 1017.7
20210723112424 17 42 6.4 14.5 0.00 0.00 0.00 44 1017.7
20210723111924 17 57 8.0 14.5 0.00 0.00 0.00 44 1017.7
20210723111423 17 52 6.4 9.7 0.00 0.00 0.00 44 1017.7
20210723110923 17 49 0.0 11.3 0.00 0.00 0.00 44 1017.6
20210723110423 17 35 3.2 11.3 0.00 0.00 0.00 44 1017.6
20210723105923 17 55 6.4 11.3 0.00 0.00 0.00 43 1018.1
20210723105422 17 54 8.0 9.7 0.00 0.00 0.00 43 1018.1
20210723104923 17 43 4.8 9.7 0.00 0.00 0.00 43 1018.1
20210723104422 17 48 4.8 11.3 0.00 0.00 0.00 41 1018.1
20210723103923 17 44 8.0 11.3 0.00 0.00 0.00 42 1018.2
20210723103423 17 43 4.8 9.7 0.00 0.00 0.00 44 1018.2
20210723102923 17 55 4.8 8.0 0.00 0.00 0.00 44 1018.2
20210723102422 17 36 3.2 9.7 0.00 0.00 0.00 44 1018.1
20210723101923 17 40 4.8 9.7 0.00 0.00 0.00 44 1018.1
20210723101423 17 47 6.4 9.7 0.00 0.00 0.00 44 1018.0
20210723100923 17 43 4.8 11.3 0.00 0.00 0.00 43 1018.0
20210723100422 17 52 8.0 11.3 0.00 0.00 0.00 43 1018.1
20210723095922 17 34 8.0 11.3 0.00 0.00 0.00 43 1018.8
20210723095423 17 42 4.8 11.3 0.00 0.00 0.00 44 1018.8
20210723094923 17 44 6.4 11.3 0.00 0.00 0.00 45 1018.8
20210723094421 17 55 4.8 11.3 0.00 0.00 0.00 44 1018.8
20210723093921 17 56 8.0 11.3 0.00 0.00 0.00 44 1018.8
20210723093422 17 52 9.7 11.3 0.00 0.00 0.00 44 1019.0
20210723092922 17 46 9.7 11.3 0.00 0.00 0.00 45 1018.9
20210723092420 17 52 6.4 11.3 0.00 0.00 0.00 44 1018.9
20210723091921 17 61 8.0 11.3 0.00 0.00 0.00 44 1019.0
20210723091420 17 31 6.4 11.3 0.00 0.00 0.00 45 1018.8
20210723090920 17 14 1.6 9.7 0.00 0.00 0.00 45 1018.9
20210723090450 17 40 4.8 12.9 0.00 0.00 0.00 45 1019.0
20210723085920 17 41 3.2 12.9 0.00 0.00 0.00 45 1019.1
20210723085419 17 40 6.4 9.7 0.00 0.00 0.00 45 1019.0
20210723084919 17 50 6.4 12.9 0.00 0.00 0.00 44 1018.9
20210723084418 17 55 4.8 12.9 0.00 0.00 0.00 43 1018.9
20210723083919 17 59 9.7 12.9 0.00 0.00 0.00 44 1018.9
20210723083418 17 69 6.4 14.5 0.00 0.00 0.00 43 1018.8
20210723082918 17 55 4.8 14.5 0.00 0.00 0.00 43 1018.8
20210723082418 18 60 9.7 11.3 0.00 0.00 0.00 43 1019.0
20210723081919 18 34 8.0 11.3 0.00 0.00 0.00 43 1019.1
20210723081418 18 56 6.4 12.9 0.00 0.00 0.00 43 1019.0
20210723080918 18 49 6.4 12.9 0.00 0.00 0.00 43 1018.8
20210723080419 18 58 8.0 11.3 0.00 0.00 0.00 42 1018.8
20210723075917 18 52 8.0 9.7 0.00 0.00 0.00 43 1019.0
20210723075417 18 39 4.8 8.0 0.00 0.00 0.00 43 1019.1
20210723074918 18 64 6.4 9.7 0.00 0.00 0.00 43 1019.0
20210723074418 18 57 4.8 9.7 0.00 0.00 0.00 43 1019.1
20210723073918 19 62 4.8 11.3 0.00 0.00 0.00 43 1019.2
20210723073417 19 36 4.8 11.3 0.00 0.00 0.00 43 1019.2
20210723072917 19 42 6.4 11.3 0.00 0.00 0.00 43 1019.2
20210723072417 19 43 6.4 9.7 0.00 0.00 0.00 44 1019.3
20210723071916 19 55 4.8 9.7 0.00 0.00 0.00 45 1019.4
20210723070934 20 51 6.4 9.7 0.00 0.00 0.00 48 1019.6
20210723070433 20 41 3.2 11.3 0.00 0.00 0.00 48 1019.6
20210723065934 20 44 8.0 11.3 0.00 0.00 0.00 49 1019.4
20210723065434 20 49 8.0 9.7 0.00 0.00 0.00 48 1019.5
20210723064934 20 48 8.0 14.5 0.00 0.00 0.00 48 1019.5
20210723064433 20 55 6.4 16.1 0.00 0.00 0.00 52 1019.7
20210723063934 20 58 9.7 16.1 0.00 0.00 0.00 54 1019.7
20210723063433 20 52 4.8 11.3 0.00 0.00 0.00 53 1019.8
20210723062932 20 63 6.4 11.3 0.00 0.00 0.00 55 1019.9
20210723062433 20 59 6.4 14.5 0.00 0.00 0.00 56 1019.9
20210723061933 20 68 4.8 14.5 0.00 0.00 0.00 57 1020.0
20210723061433 20 53 8.0 14.5 0.00 0.00 0.00 57 1019.8
20210723060932 20 49 6.4 12.9 0.00 0.00 0.00 59 1019.9
20210723060432 20 69 6.4 12.9 0.00 0.00 0.00 59 1020.0
20210723055932 20 42 4.8 9.7 0.00 0.00 0.00 61 1019.9
20210723055432 20 55 4.8 12.9 0.00 0.00 0.00 62 1019.8
20210723054932 20 49 11.3 12.9 0.00 0.00 0.00 64 1019.7
20210723054432 20 55 8.0 11.3 0.00 0.00 0.00 63 1019.7
20210723053932 20 47 8.0 9.7 0.00 0.00 0.00 63 1019.7
20210723053430 20 42 4.8 9.7 0.00 0.00 0.00 63 1019.8
20210723052931 20 44 8.0 12.9 0.00 0.00 0.00 63 1019.8
20210723052430 20 55 8.0 12.9 0.00 0.00 0.00 62 1019.8
20210723051930 20 46 4.8 12.9 0.00 0.00 0.00 62 1019.8
20210723051430 20 57 9.7 12.9 0.00 0.00 0.00 63 1020.0
20210723050930 20 42 6.4 9.7 0.00 0.00 0.00 61 1020.0
20210723050430 20 45 6.4 9.7 0.00 0.00 0.00 61 1020.0
20210723045930 20 40 6.4 9.7 0.00 0.00 0.00 61 1020.0
20210723045429 20 45 6.4 9.7 0.00 0.00 0.00 61 1020.0
20210723044929 20 49 8.0 9.7 0.00 0.00 0.00 60 1019.9
20210723044429 20 44 6.4 9.7 0.00 0.00 0.00 63 1019.9
20210723043929 20 57 1.6 9.7 0.00 0.00 0.00 61 1019.8
20210723043429 20 55 1.6 9.7 0.00 0.00 0.00 61 1020.0
20210723042929 20 55 3.2 9.7 0.00 0.00 0.00 60 1019.9
20210723042429 20 55 6.4 9.7 0.00 0.00 0.00 61 1019.9
20210723041928 21 48 6.4 9.7 0.00 0.00 0.00 61 1019.8
20210723041429 21 54 6.4 9.7 0.00 0.00 0.00 60 1019.8
20210723040928 21 55 3.2 8.0 0.00 0.00 0.00 60 1019.7
20210723040428 21 55 4.8 8.0 0.00 0.00 0.00 60 1019.7
20210723035928 21 55 4.8 8.0 0.00 0.00 0.00 59 1019.5
20210723035428 21 55 6.4 8.0 0.00 0.00 0.00 59 1019.4
20210723034927 21 55 4.8 8.0 0.00 0.00 0.00 58 1019.1
20210723034427 21 55 6.4 8.0 0.00 0.00 0.00 58 1019.1
20210723033927 21 55 6.4 9.7 0.00 0.00 0.00 57 1019.1
20210723033427 21 55 6.4 9.7 0.00 0.00 0.00 58 1019.1
20210723032927 21 57 4.8 9.7 0.00 0.00 0.00 58 1019.0
20210723032427 21 57 3.2 9.7 0.00 0.00 0.00 57 1019.0
20210723031927 21 74 4.8 8.0 0.00 0.00 0.00 58 1019.0
20210723031427 22 75 0.0 4.8 0.00 0.00 0.00 60 1019.0
20210723030927 22 75 1.6 6.4 0.00 0.00 0.00 60 1019.0
20210723030426 22 75 0.0 6.4 0.00 0.00 0.00 62 1018.9
20210723025927 22 75 4.8 8.0 0.00 0.00 0.00 62 1018.2
20210723025426 22 75 3.2 8.0 0.00 0.00 0.00 62 1018.2
20210723024927 22 75 4.8 8.0 0.00 0.00 0.00 64 1018.2
20210723024426 22 59 6.4 8.0 0.00 0.00 0.00 64 1018.1
20210723023926 22 59 4.8 8.0 0.00 0.00 0.00 64 1018.0
20210723023426 22 80 6.4 8.0 0.00 0.00 0.00 64 1018.0
20210723022925 22 61 0.0 4.8 0.00 0.00 0.00 64 1018.0
20210723022426 22 62 0.0 3.2 0.00 0.00 0.00 64 1018.1
20210723021925 22 61 0.0 0.0 0.00 0.00 0.00 64 1018.0
20210723021425 22 61 0.0 6.4 0.00 0.00 0.00 64 1018.0
20210723020925 22 62 0.0 6.4 0.00 0.00 0.00 64 1018.0
20210723020425 22 62 6.4 6.4 0.00 0.00 0.00 64 1018.0
20210723015925 22 355 3.2 3.2 0.00 0.00 0.00 64 1017.2
20210723015424 22 264 3.2 6.4 0.00 0.00 0.00 64 1017.1
20210723014924 22 264 0.0 12.9 0.00 0.00 0.00 63 1017.0
20210723014424 23 248 3.2 12.9 0.00 0.00 0.00 62 1017.1
20210723013924 23 249 3.2 11.3 0.00 0.00 0.00 61 1017.1
20210723013424 23 182 8.0 9.7 0.00 0.00 0.00 60 1016.9
20210723012924 23 200 6.4 6.4 0.00 0.00 0.00 60 1016.6
20210723012424 23 214 0.0 3.2 0.00 0.00 0.00 60 1016.7
20210723011924 23 214 1.6 3.2 0.00 0.00 0.00 60 1016.6
20210723010927 23 214 1.6 9.7 0.00 0.00 0.00 60 1016.6
20210723010427 23 221 3.2 11.3 0.00 0.00 0.00 60 1016.6
20210723005927 23 234 4.8 11.3 0.00 0.00 0.00 60 1016.2
20210723005426 24 207 8.0 11.3 0.00 0.00 0.00 59 1016.1
20210723004926 24 188 0.0 4.8 0.00 0.00 0.00 60 1016.2
20210723004426 24 195 0.0 6.4 0.00 0.00 0.00 60 1016.2
20210723003926 23 192 1.6 8.0 0.00 0.00 0.00 60 1016.2
20210723003426 23 198 3.2 9.7 0.00 0.00 0.00 60 1016.0
20210723002926 23 186 4.8 11.3 0.00 0.00 0.00 60 1016.1
20210723002426 24 206 3.2 12.9 0.00 0.00 0.00 59 1016.1
20210723001925 24 183 8.0 14.5 0.00 0.00 0.00 59 1016.1
20210723001425 24 196 4.8 14.5 0.00 0.00 0.00 58 1016.1
20210723000926 24 229 6.4 14.5 0.00 0.00 0.00 58 1016.0
20210723000425 24 237 3.2 14.5 0.00 0.00 0.00 58 1016.1
20210722235925 25 182 6.4 12.9 0.00 0.00 0.00 57 1016.7
20210722235425 25 246 3.2 14.5 0.00 0.00 0.00 56 1016.7
20210722234925 25 224 3.2 14.5 0.00 0.00 0.00 56 1016.6
20210722234425 25 190 6.4 16.1 0.00 0.00 0.00 55 1016.8
20210722233925 25 194 12.9 16.1 0.00 0.00 0.00 55 1016.8
20210722233425 25 212 8.0 12.9 0.00 0.00 0.00 54 1016.7
20210722232924 25 261 9.7 11.3 0.00 0.00 0.00 53 1016.7
20210722232425 26 234 4.8 16.1 0.00 0.00 0.00 53 1016.6
20210722231924 26 221 6.4 16.1 0.00 0.00 0.00 52 1016.3
20210722231424 26 242 4.8 12.9 0.00 0.00 0.00 52 1016.6
20210722230924 27 269 12.9 12.9 0.00 0.00 0.00 51 1016.8
20210722230423 27 284 11.3 16.1 0.00 0.00 0.00 49 1016.8
20210722225923 27 306 6.4 16.1 0.00 0.00 0.00 48 1017.1
20210722225423 28 268 4.8 17.7 0.00 0.00 0.00 48 1017.2
20210722224923 28 319 8.0 17.7 0.00 0.00 0.00 47 1017.5
20210722224424 28 243 12.9 17.7 0.00 0.00 0.00 46 1017.7
20210722223924 29 269 6.4 17.7 0.00 0.00 0.00 45 1017.5
20210722223423 29 262 9.7 17.7 0.00 0.00 0.00 45 1017.4
20210722222922 30 232 16.1 17.7 0.00 0.00 0.00 44 1017.7
20210722222423 30 238 4.8 20.9 0.00 0.00 0.00 43 1017.8
20210722221922 31 264 16.1 22.5 0.00 0.00 0.00 41 1018.0
20210722221423 31 291 11.3 22.5 0.00 0.00 0.00 40 1017.8
20210722220922 31 269 6.4 22.5 0.00 0.00 0.00 39 1017.8
20210722220422 31 267 17.7 24.1 0.00 0.00 0.00 41 1017.7
20210722215922 31 240 8.0 24.1 0.00 0.00 0.00 40 1017.8
20210722215422 31 226 9.7 20.9 0.00 0.00 0.00 40 1017.6
20210722214921 31 287 14.5 20.9 0.00 0.00 0.00 40 1017.6
20210722214421 30 276 6.4 19.3 0.00 0.00 0.00 41 1017.2
20210722213921 30 257 4.8 17.7 0.00 0.00 0.00 42 1017.4
20210722213421 29 284 9.7 19.3 0.00 0.00 0.00 42 1017.2
20210722212921 30 294 11.3 20.9 0.00 0.00 0.00 41 1017.6
20210722212421 30 232 17.7 22.5 0.00 0.00 0.00 41 1017.7
20210722211920 30 212 8.0 22.5 0.00 0.00 0.00 40 1017.6
20210722211422 30 208 17.7 19.3 0.00 0.00 0.00 39 1017.5
20210722210921 31 209 8.0 16.1 0.00 0.00 0.00 37 1017.8
20210722210452 31 261 12.9 19.3 0.00 0.00 0.00 36 1017.8
20210722205920 32 297 8.0 20.9 0.00 0.00 0.00 35 1018.0
20210722205420 32 284 9.7 20.9 0.00 0.00 0.00 35 1018.4
20210722204920 32 258 4.8 20.9 0.00 0.00 0.00 35 1018.0
20210722204420 32 284 11.3 20.9 0.00 0.00 0.00 35 1018.2
20210722203919 32 288 16.1 20.9 0.00 0.00 0.00 35 1018.3
20210722203419 32 266 4.8 20.9 0.00 0.00 0.00 35 1018.3
20210722202920 32 262 16.1 20.9 0.00 0.00 0.00 35 1018.3
20210722202420 32 255 4.8 20.9 0.00 0.00 0.00 36 1018.1
20210722201919 32 257 16.1 22.5 0.00 0.00 0.00 36 1018.3
20210722201450 32 292 12.9 22.5 0.00 0.00 0.00 36 1018.3
20210722200919 32 316 17.7 20.9 0.00 0.00 0.00 36 1018.2
20210722200448 32 245 14.5 20.9 0.00 0.00 0.00 35 1018.1
20210722195919 32 277 6.4 19.3 0.00 0.00 0.00 37 1018.5
20210722195419 32 282 12.9 19.3 0.00 0.00 0.00 37 1018.5
20210722194919 31 288 11.3 19.3 0.00 0.00 0.00 37 1018.3
20210722194418 31 270 9.7 19.3 0.00 0.00 0.00 37 1018.3
20210722193919 31 243 14.5 20.9 0.00 0.00 0.00 37 1018.3
20210722193447 31 273 9.7 20.9 0.00 0.00 0.00 38 1018.3
20210722192918 31 288 8.0 17.7 0.00 0.00 0.00 37 1018.2
20210722192418 31 309 11.3 19.3 0.00 0.00 0.00 39 1018.2
20210722191948 31 301 4.8 22.5 0.00 0.00 0.00 38 1018.2
20210722190933 31 238 8.0 25.7 0.00 0.00 0.00 38 1018.2
20210722190432 31 292 6.4 25.7 0.00 0.00 0.00 38 1018.3
20210722185934 31 294 3.2 17.7 0.00 0.00 0.00 37 1018.5
20210722185432 31 302 11.3 17.7 0.00 0.00 0.00 38 1018.5
20210722184933 31 287 6.4 22.5 0.00 0.00 0.00 38 1018.6
20210722184433 31 236 4.8 22.5 0.00 0.00 0.00 37 1018.4
20210722183932 31 286 12.9 16.1 0.00 0.00 0.00 37 1018.2
20210722183431 31 241 9.7 16.1 0.00 0.00 0.00 37 1018.5
20210722182932 31 249 11.3 22.5 0.00 0.00 0.00 38 1018.3
20210722182432 31 205 8.0 22.5 0.00 0.00 0.00 38 1018.2
20210722181931 31 282 11.3 17.7 0.00 0.00 0.00 38 1018.4
20210722181430 30 240 12.9 14.5 0.00 0.00 0.00 39 1018.3
20210722180931 30 248 11.3 17.7 0.00 0.00 0.00 38 1018.1
20210722180430 30 240 12.9 17.7 0.00 0.00 0.00 38 1018.0
20210722175930 30 241 6.4 20.9 0.00 0.00 0.00 38 1017.9
20210722175429 30 200 14.5 20.9 0.00 0.00 0.00 37 1017.8
20210722174930 30 201 12.9 19.3 0.00 0.00 0.00 36 1017.9
20210722174429 31 197 12.9 14.5 0.00 0.00 0.00 36 1018.1
20210722173930 30 261 12.9 17.7 0.00 0.00 0.00 36 1017.9
20210722173430 30 240 14.5 20.9 0.00 0.00 0.00 35 1017.9
20210722172930 30 242 8.0 20.9 0.00 0.00 0.00 35 1017.7
20210722172430 30 224 16.1 17.7 0.00 0.00 0.00 35 1017.8
20210722171930 30 203 9.7 19.3 0.00 0.00 0.00 35 1017.6
20210722171429 30 249 14.5 19.3 0.00 0.00 0.00 35 1017.7
20210722170929 30 200 9.7 19.3 0.00 0.00 0.00 34 1017.5
20210722170429 30 222 8.0 17.7 0.00 0.00 0.00 35 1017.4
20210722165929 30 246 4.8 17.7 0.00 0.00 0.00 35 1017.4